Location: Unspecified
(0.0000°N, 0.0000°E)
Time: 00:22:04
(UTC+00:00)

Explorer 7 - All Passes

Search period start: 26 January 2021 00:00
Search period end: 05 February 2021 00:00
Orbit: 484 x 678 km, 50.3° (Epoch: 25 January)

Date Brightness Start Highest point End Pass type
(mag) Time Alt. Az. Time Alt. Az. Time Alt. Az.
26 Jan - 01:08:43 10° SW 01:12:22 40° NW 01:15:53 10° NNE night (unlit)
26 Jan - 11:30:36 10° N 11:33:48 18° NE 11:37:06 10° E daylight
26 Jan - 13:09:53 10° WNW 13:14:12 34° SW 13:18:39 10° SSE daylight
26 Jan - 23:33:39 10° S 23:36:36 20° SE 23:39:27 10° E night (unlit)
27 Jan - 01:14:10 10° W 01:16:51 18° NW 01:19:29 10° N night (unlit)
27 Jan - 11:34:04 10° NNW 11:38:19 35° NE 11:42:43 10° ESE daylight
27 Jan - 13:15:30 10° W 13:18:46 18° SW 13:22:07 10° S daylight
27 Jan - 23:37:21 10° SSW 23:41:09 43° SE 23:44:46 10° NE night (unlit)
28 Jan - 11:38:11 10° NNW 11:42:48 71° NE 11:47:38 10° SE daylight
28 Jan - 23:41:42 10° SW 23:45:40 77° NW 23:49:27 10° NNE night (unlit)
29 Jan - 10:05:59 10° NE 10:06:57 11° NE 10:07:55 10° ENE daylight
29 Jan - 11:42:45 10° NW 11:47:18 57° SW 11:52:04 10° SSE daylight
29 Jan - 22:08:10 10° SSE 22:09:47 12° SE 22:11:24 10° ESE night (unlit)
29 Jan - 23:46:35 10° WSW 23:50:09 32° NW 23:53:35 10° N night (unlit)
30 Jan - 10:08:01 10° N 10:11:28 21° NE 10:15:02 10° ESE daylight
30 Jan - 11:47:49 10° WNW 11:51:50 28° SW 11:56:01 10° S daylight
30 Jan - 22:11:00 10° S 22:14:24 25° SE 22:17:38 10° ENE night (unlit)
30 Jan - 23:52:18 10° W 23:54:39 15° NW 23:56:56 10° NNW night (unlit)
31 Jan - 10:11:41 10° NNW 10:15:57 41° NE 10:20:26 10° SE daylight
31 Jan - 11:53:45 10° W 11:56:26 15° SW 11:59:11 10° SSW daylight
31 Jan - 22:14:55 10° SSW 22:18:56 56° SE 22:22:44 10° NE night (unlit)
01 Feb - 10:15:54 10° NW 10:20:26 85° NE 10:25:13 10° SE daylight
01 Feb - 22:19:24 10° SW 22:23:27 61° NW 22:27:16 10° NNE night (unlit)
02 Feb - 08:42:47 10° NNE 08:44:37 12° NE 08:46:30 10° ENE daylight
02 Feb - 10:20:36 10° NW 10:24:56 46° SW 10:29:32 10° SSE daylight
02 Feb - 20:45:03 10° SSE 20:47:34 15° SE 20:50:01 10° E visible
02 Feb - 22:24:26 10° WSW 22:27:55 27° NW 22:31:14 10° N night (unlit)
03 Feb - 08:45:32 10° N 08:49:07 24° NE 08:52:53 10° ESE daylight
03 Feb - 10:25:52 10° WNW 10:29:30 23° SW 10:33:18 10° S daylight
03 Feb - 20:48:22 10° SSW 20:52:10 32° SE 20:55:44 10° ENE visible
03 Feb - 22:30:31 10° W 22:32:24 13° NW 22:34:14 10° NNW night (unlit)
04 Feb - 08:49:21 10° NNW 08:53:35 49° NE 08:58:06 10° SE daylight
04 Feb - 10:32:19 10° WSW 10:34:07 12° SW 10:35:57 10° SSW daylight
04 Feb - 20:52:28 10° SSW 20:56:42 72° SE 21:00:39 10° NE visible
